Location: Newark
(48.2308°N, 120.8549°W)
Time: 00:46:25
(UTC+00:00)

FENGYUN 1C DEB - Pass Details

Date: 05 February 2022
Orbit: 822 x 948 km, 99.2° (Epoch: 23 May)

Event Time Altitude Azimuth Distance (km) Brightness Sun altitude
Rises 04:47:41 0° 209° (SSW) 3,612 ? -36.5°
Reaches altitude 10° 04:50:54 10° 226° (SW) 2,666 ? -37.0°
Maximum altitude 04:55:02 19° 270° (W) 2,072 ? -37.7°
Drops below altitude 10° 04:59:09 10° 315° (NW) 2,643 ? -38.3°
Sets 05:02:21 0° 333° (NNW) 3,571 ? -38.8°
